This is the latest recevied weather packets stored in our database for station/object N5DGC. If no packets are shown the sender has not sent any weather packets the latest 10 day(s).
| Time | Temp. | Humidity | Pressure | Rain* | Wind** | Luminosity | Snow |
|---|---|---|---|---|---|---|---|
| 1777751987 | 17.22° C | 33% | 1241.8 hPa | 0 mm | - | 480 W/m² | - |
| 1777751684 | 17.78° C | 31% | 1241.7 hPa | 0 mm | - | 414 W/m² | - |
| 1777751380 | 17.78° C | 32% | 1241.8 hPa | 0 mm | - | 434 W/m² | - |
| 1777751077 | 17.22° C | 34% | 1241.7 hPa | 0 mm | - | 400 W/m² | - |
| 1777750772 | 17.78° C | 32% | 1242.2 hPa | 0 mm | - | 400 W/m² | - |
| 1777750470 | 18.33° C | 32% | 1241.9 hPa | 0 mm | - | 444 W/m² | - |
| 1777750165 | 17.78° C | 30% | 1242.2 hPa | 0 mm | - | 487 W/m² | - |
| 1777749863 | 17.22° C | 32% | 1242.2 hPa | 0 mm | - | 479 W/m² | - |
| 1777749560 | 18.33° C | 30% | 1242.1 hPa | 0 mm | - | 358 W/m² | - |
| 1777749258 | 19.44° C | 31% | 1242.2 hPa | 0 mm | - | 511 W/m² | - |
| 1777748955 | 18.89° C | 31% | 1242.3 hPa | 0 mm | - | 731 W/m² | - |
| 1777748652 | 18.89° C | 32% | 1242.2 hPa | 0 mm | - | 760 W/m² | - |
| 1777748348 | 18.89° C | 31% | 1242.4 hPa | 0 mm | - | 897 W/m² | - |
| 1777748043 | 17.78° C | 33% | 1242.3 hPa | 0 mm | - | 973 W/m² | - |
| 1777747741 | 17.78° C | 35% | 1242.7 hPa | 0 mm | - | 981 W/m² | - |
| 1777747436 | 17.78° C | 34% | 1242.8 hPa | 0 mm | - | 1007 W/m² | - |
| 1777747133 | 17.78° C | 34% | 1242.7 hPa | 0 mm | - | 846 W/m² | - |
| 1777746829 | 18.89° C | 33% | 1242.8 hPa | 0 mm | - | 857 W/m² | - |
| 1777746524 | 18.33° C | 34% | 1242.9 hPa | 0 mm | - | 1020 W/m² | - |
| 1777746220 | 17.78° C | 35% | 1242.9 hPa | 0 mm | - | 887 W/m² | - |
| 1777745917 | 17.22° C | 37% | 1243 hPa | 0 mm | - | 667 W/m² | - |
| 1777745616 | 17.22° C | 39% | 1243 hPa | 0 mm | - | 774 W/m² | - |
| 1777745313 | 16.67° C | 38% | 1243 hPa | 0 mm | - | 989 W/m² | - |
| 1777745010 | 16.67° C | 37% | 1243 hPa | 0 mm | - | 814 W/m² | - |
| 1777744706 | 16.67° C | 37% | 1243.1 hPa | 0 mm | - | 767 W/m² | - |
* Rain latest hour (hover to see other rain measurements)
** Current wind speed in m/s (hover to see current wind gust speed)